Temp
-8 -8 -8 -8 -8 -8 -8 -8 -8 -8 -8 -8 -8 -8 -8 -8 -8 -8 -8 -8 -8 -8 -7 -7 -7 -6 -6 -6 -6 -6 -6 -6 -6 -6 -6 -7 -7 -7 -7 -8 -8 -8 -9 -9 -10 -10 -10 -10 -10 -10 -9 -9 -9 -9 -9 -9 -9 -9 -9 -10 -9 -9 -9 -9 -9 -9 -9 -9 -8 -8 -8 -8 -8 -8
-8 -8 -8 -8 -8 -8 -8 -8 -8 -8 -8 -8 -8 -8 -8 -8 -8 -8 -8 -9 -8 -8 -8 -8 -7 -7 -7 -6 -7 -7 -7 -7 -7 -7 -7 -7 -7 -7 -7 -7 -7 -8 -8 -9 -9 -10 -10 -10 -10 -10 -10 -9 -9 -9 -9 -10 -10 -9 -9 -9 -9 -9 -9 -9 -9 -9 -9 -9 -8 -8 -8 -8 -8 -8
-9 -8 -8 -8 -9 -9 -9 -9 -9 -9 -9 -9 -8 -8 -8 -9 -9 -9 -9 -9 -9 -8 -8 -8 -8 -7 -7 -7 -7 -7 -7 -7 -7 -7 -7 -7 -7 -7 -7 -7 -7 -8 -8 -8 -9 -9 -10 -10 -11 -11 -11 -10 -10 -10 -10 -10 -10 -10 -9 -9 -9 -9 -9 -9 -9 -9 -9 -9 -8 -8 -8 -8 -8 -8
-10 -9 -9 -9 -9 -9 -9 -9 -9 -9 -9 -9 -9 -9 -9 -9 -9 -9 -9 -9 -9 -9 -8 -8 -8 -7 -7 -7 -7 -7 -7 -7 -7 -7 -7 -7 -7 -7 -7 -7 -7 -8 -8 -8 -9 -9 -10 -10 -11 -11 -11 -11 -10 -10 -10 -10 -10 -10 -10 -10 -9 -9 -9 -9 -9 -9 -9 -9 -9 -8 -8 -8 -8 -8
-10 -10 -10 -9 -9 -9 -9 -9 -9 -9 -9 -9 -9 -9 -9 -9 -9 -9 -9 -9 -9 -9 -8 -8 -8 -8 -7 -7 -7 -7 -7 -8 -8 -8 -8 -8 -8 -8 -8 -8 -8 -8 -8 -9 -9 -10 -10 -10 -11 -11 -11 -11 -11 -10 -10 -10 -10 -10 -10 -10 -10 -9 -9 -9 -9 -9 -9 -9 -9 -8 -8 -8 -8 -8
-10 -10 -10 -10 -10 -10 -10 -10 -9 -9 -9 -9 -9 -9 -9 -9 -9 -9 -9 -8 -8 -8 -8 -8 -8 -8 -8 -8 -8 -8 -8 -8 -8 -8 -8 -8 -8 -8 -8 -8 -8 -9 -9 -9 -10 -10 -10 -11 -11 -11 -11 -11 -11 -11 -11 -10 -10 -10 -10 -10 -10 -10 -10 -10 -9 -9 -9 -9 -9 -9 -8 -8 -8 -8
-10 -10 -10 -10 -10 -10 -10 -10 -10 -9 -9 -9 -9 -9 -9 -9 -9 -9 -9 -9 -8 -8 -8 -8 -8 -8 -8 -8 -8 -8 -8 -8 -8 -8 -8 -8 -8 -8 -8 -9 -9 -9 -9 -10 -10 -11 -11 -11 -11 -11 -11 -12 -12 -12 -11 -11 -11 -11 -11 -11 -10 -10 -10 -10 -10 -9 -9 -9 -9 -9 -8 -8 -8 -8
-10 -10 -10 -10 -10 -10 -10 -10 -10 -10 -10 -9 -9 -9 -9 -9 -9 -9 -9 -9 -9 -9 -9 -9 -9 -9 -8 -8 -8 -8 -8 -8 -8 -8 -8 -8 -8 -9 -9 -9 -9 -10 -10 -10 -11 -11 -11 -12 -12 -12 -12 -12 -12 -12 -12 -12 -11 -11 -11 -11 -11 -11 -10 -10 -10 -10 -9 -9 -9 -9 -9 -8 -8 -8
-10 -10 -10 -10 -10 -10 -10 -10 -10 -10 -10 -10 -10 -10 -10 -10 -10 -10 -10 -9 -9 -9 -9 -9 -9 -9 -9 -9 -9 -9 -9 -9 -9 -8 -8 -9 -9 -9 -9 -10 -10 -10 -11 -11 -11 -11 -12 -12 -12 -12 -13 -13 -13 -13 -13 -12 -12 -12 -11 -11 -11 -11 -11 -10 -10 -10 -10 -9 -9 -9 -9 -9 -8 -8
-10 -10 -10 -10 -11 -10 -10 -10 -10 -10 -10 -10 -10 -10 -10 -10 -10 -10 -11 -10 -10 -10 -10 -10 -10 -10 -9 -9 -9 -9 -9 -9 -9 -9 -9 -9 -9 -9 -10 -10 -10 -11 -11 -11 -12 -12 -12 -12 -13 -13 -13 -13 -13 -13 -13 -13 -12 -12 -12 -12 -12 -11 -11 -11 -10 -10 -10 -10 -9 -9 -9 -9 -8 -8
-10 -10 -10 -10 -11 -11 -11 -11 -11 -11 -11 -10 -10 -10 -10 -10 -10 -11 -11 -11 -11 -11 -11 -11 -11 -10 -10 -10 -10 -9 -9 -9 -9 -9 -9 -9 -10 -10 -10 -11 -11 -11 -12 -12 -12 -12 -12 -12 -13 -13 -13 -13 -13 -13 -13 -13 -13 -12 -12 -12 -12 -12 -12 -11 -11 -10 -10 -10 -10 -9 -9 -9 -9 -8
-10 -11 -10 -10 -10 -11 -11 -11 -11 -11 -11 -11 -11 -11 -11 -11 -11 -11 -11 -11 -11 -11 -11 -11 -11 -11 -10 -10 -10 -10 -10 -10 -10 -10 -10 -10 -10 -11 -11 -11 -12 -12 -12 -12 -12 -13 -13 -13 -13 -13 -13 -13 -13 -13 -13 -13 -13 -13 -13 -12 -12 -12 -12 -12 -11 -11 -10 -10 -10 -10 -9 -9 -9 -8
-10 -10 -10 -10 -10 -10 -11 -11 -11 -11 -11 -10 -11 -11 -11 -11 -11 -11 -11 -11 -11 -12 -11 -11 -11 -11 -11 -10 -10 -10 -10 -11 -11 -11 -11 -11 -11 -12 -12 -12 -12 -12 -12 -12 -13 -13 -13 -13 -13 -14 -14 -14 -14 -13 -13 -13 -13 -13 -13 -13 -13 -12 -12 -12 -12 -11 -11 -10 -10 -10 -10 -9 -9 -9
-9 -10 -10 -10 -10 -10 -10 -10 -10 -10 -10 -11 -11 -11 -11 -12 -12 -12 -12 -12 -12 -12 -12 -12 -11 -11 -11 -10 -10 -10 -11 -11 -11 -11 -12 -12 -12 -12 -12 -12 -13 -13 -13 -13 -13 -13 -13 -13 -13 -14 -14 -14 -14 -14 -13 -13 -13 -13 -14 -13 -13 -13 -12 -12 -12 -11 -11 -10 -10 -10 -10 -9 -9 -9
-9 -10 -10 -11 -10 -10 -10 -10 -11 -11 -11 -11 -11 -11 -11 -12 -12 -12 -12 -12 -12 -12 -12 -12 -11 -11 -11 -11 -11 -11 -11 -12 -12 -12 -12 -12 -12 -13 -13 -13 -13 -13 -13 -13 -13 -13 -14 -14 -14 -14 -14 -14 -14 -14 -14 -14 -14 -14 -14 -14 -13 -13 -13 -12 -12 -12 -11 -11 -10 -10 -10 -10 -9 -9
-9 -10 -10 -10 -10 -10 -10 -10 -10 -10 -11 -11 -11 -11 -11 -12 -12 -12 -12 -12 -12 -12 -12 -11 -11 -11 -11 -11 -12 -12 -12 -12 -13 -13 -13 -13 -13 -13 -13 -13 -13 -13 -13 -13 -13 -14 -14 -14 -14 -14 -14 -14 -14 -14 -14 -14 -14 -14 -14 -14 -14 -13 -13 -12 -12 -12 -11 -11 -10 -10 -10 -9 -9 -9
-9 -9 -10 -10 -10 -10 -10 -10 -10 -10 -11 -11 -11 -11 -12 -12 -12 -12 -12 -12 -12 -12 -11 -11 -12 -12 -12 -12 -12 -13 -13 -13 -13 -13 -13 -13 -13 -13 -14 -13 -13 -13 -14 -14 -14 -14 -14 -14 -14 -14 -14 -14 -14 -14 -14 -14 -14 -14 -14 -14 -14 -14 -13 -12 -12 -12 -11 -11 -11 -10 -10 -9 -9 -9
-9 -10 -10 -10 -10 -10 -10 -10 -10 -10 -11 -11 -11 -11 -11 -11 -11 -12 -12 -12 -12 -12 -12 -12 -12 -12 -12 -12 -13 -13 -13 -13 -13 -13 -13 -14 -14 -14 -14 -14 -14 -14 -14 -14 -14 -14 -14 -14 -14 -14 -14 -14 -14 -14 -14 -14 -14 -14 -14 -14 -14 -14 -13 -12 -12 -11 -11 -11 -11 -10 -10 -9 -9 -9
-9 -10 -10 -10 -10 -10 -10 -10 -10 -10 -10 -10 -10 -11 -11 -11 -11 -11 -12 -12 -12 -12 -12 -12 -12 -12 -13 -13 -13 -13 -13 -13 -13 -14 -14 -14 -14 -14 -14 -14 -14 -14 -14 -14 -14 -14 -14 -14 -14 -14 -14 -14 -14 -14 -14 -14 -14 -14 -15 -14 -14 -14 -13 -12 -12 -11 -11 -11 -11 -11 -10 -10 -9 -9
-9 -10 -11 -10 -10 -10 -10 -10 -10 -11 -11 -11 -11 -11 -11 -11 -11 -11 -12 -12 -12 -12 -12 -12 -13 -13 -13 -13 -13 -13 -13 -13 -13 -13 -14 -14 -14 -14 -14 -14 -14 -14 -14 -15 -15 -15 -14 -14 -14 -14 -14 -14 -14 -14 -14 -14 -14 -15 -15 -14 -14 -13 -13 -12 -12 -11 -11 -11 -11 -11 -10 -10 -9 -9
-10 -11 -11 -10 -10 -10 -10 -10 -10 -11 -11 -11 -11 -11 -11 -11 -12 -12 -12 -12 -12 -12 -12 -13 -13 -13 -13 -13 -13 -14 -14 -14 -14 -14 -14 -14 -14 -14 -14 -14 -14 -14 -15 -15 -15 -15 -14 -14 -14 -14 -14 -14 -14 -14 -14 -14 -14 -14 -14 -14 -14 -13 -12 -12 -12 -11 -11 -11 -11 -11 -10 -10 -10 -9
-10 -10 -10 -10 -10 -10 -10 -10 -11 -11 -11 -11 -11 -11 -11 -12 -12 -12 -12 -12 -12 -13 -13 -13 -13 -13 -14 -14 -14 -14 -14 -14 -14 -14 -14 -14 -14 -14 -14 -14 -14 -14 -15 -15 -15 -15 -14 -14 -14 -14 -14 -14 -14 -14 -14 -14 -14 -14 -14 -14 -13 -12 -12 -12 -12 -11 -11 -10 -11 -11 -10 -10 -10 -10
-10 -10 -10 -10 -10 -10 -10 -10 -11 -11 -12 -12 -12 -12 -12 -12 -12 -12 -12 -12 -13 -13 -13 -13 -13 -13 -14 -14 -14 -14 -15 -15 -15 -15 -15 -15 -15 -14 -14 -14 -14 -14 -15 -16 -15 -14 -14 -14 -14 -14 -14 -14 -14 -14 -14 -14 -14 -15 -14 -13 -12 -12 -12 -12 -11 -11 -11 -10 -10 -10 -10 -10 -10 -9
-10 -10 -10 -10 -11 -10 -10 -11 -11 -12 -12 -12 -12 -12 -12 -12 -12 -12 -13 -13 -13 -13 -13 -14 -14 -14 -14 -14 -14 -15 -15 -15 -15 -15 -15 -15 -15 -14 -14 -14 -14 -14 -15 -15 -15 -14 -14 -14 -14 -14 -14 -14 -14 -14 -14 -14 -15 -14 -14 -12 -12 -12 -12 -12 -11 -11 -11 -10 -10 -10 -10 -10 -10 -9
-11 -11 -11 -11 -11 -11 -11 -11 -12 -12 -12 -12 -12 -12 -12 -12 -12 -13 -13 -13 -13 -14 -14 -14 -14 -14 -15 -15 -15 -15 -15 -15 -15 -15 -15 -15 -15 -15 -14 -14 -15 -15 -15 -15 -15 -14 -14 -14 -14 -14 -14 -14 -14 -14 -14 -15 -14 -14 -13 -12 -12 -12 -12 -11 -11 -11 -11 -10 -10 -10 -10 -10 -10 -9
-11 -11 -11 -12 -12 -12 -12 -12 -12 -12 -12 -12 -12 -12 -12 -12 -13 -13 -13 -13 -14 -14 -14 -14 -15 -15 -15 -15 -15 -15 -15 -15 -15 -15 -15 -15 -15 -15 -15 -15 -15 -15 -15 -15 -15 -14 -14 -14 -14 -14 -14 -14 -14 -14 -14 -15 -14 -13 -13 -12 -12 -12 -12 -12 -12 -11 -11 -10 -10 -10 -10 -10 -10 -9
-11 -11 -12 -12 -12 -12 -12 -13 -13 -13 -13 -13 -13 -13 -13 -13 -13 -13 -13 -14 -14 -14 -14 -15 -15 -15 -15 -15 -15 -15 -15 -15 -15 -15 -15 -15 -15 -15 -15 -15 -15 -15 -15 -15 -15 -15 -14 -14 -14 -14 -14 -14 -14 -14 -14 -14 -14 -13 -13 -13 -12 -12 -12 -12 -12 -12 -11 -11 -10 -10 -10 -10 -9 -9
-12 -12 -12 -12 -13 -13 -13 -13 -13 -13 -13 -13 -13 -13 -13 -13 -13 -14 -14 -14 -14 -14 -15 -15 -15 -15 -15 -16 -16 -16 -16 -15 -15 -15 -15 -16 -16 -15 -15 -15 -15 -15 -15 -15 -15 -15 -14 -14 -14 -14 -14 -14 -14 -14 -14 -14 -13 -13 -13 -13 -13 -12 -12 -12 -12 -12 -12 -11 -10 -10 -10 -10 -9 -9
-12 -12 -13 -13 -13 -13 -13 -13 -13 -13 -13 -13 -13 -13 -14 -14 -14 -14 -14 -14 -14 -15 -15 -15 -15 -16 -16 -16 -16 -16 -16 -16 -16 -16 -16 -16 -16 -16 -16 -16 -16 -16 -15 -15 -15 -15 -15 -14 -14 -15 -15 -15 -15 -14 -14 -13 -13 -13 -13 -13 -13 -13 -12 -12 -12 -12 -12 -11 -11 -10 -10 -10 -10 -9
-12 -13 -13 -13 -13 -13 -13 -13 -13 -13 -14 -14 -14 -14 -14 -14 -14 -14 -14 -14 -14 -15 -15 -15 -16 -16 -16 -16 -16 -16 -16 -16 -16 -16 -16 -16 -16 -16 -16 -16 -16 -16 -16 -15 -15 -15 -15 -15 -15 -15 -15 -15 -15 -14 -14 -13 -13 -13 -13 -13 -13 -12 -12 -12 -12 -12 -12 -11 -10 -10 -10 -10 -10 -9
-13 -13 -14 -13 -13 -13 -13 -13 -13 -14 -14 -14 -15 -15 -14 -14 -14 -14 -14 -14 -15 -15 -15 -16 -16 -16 -16 -16 -16 -16 -16 -16 -16 -16 -16 -16 -16 -16 -16 -16 -16 -16 -16 -16 -15 -15 -15 -15 -15 -15 -15 -15 -15 -14 -14 -13 -13 -13 -13 -13 -13 -13 -12 -12 -12 -12 -12 -11 -11 -10 -10 -10 -10 -10
-13 -14 -14 -14 -13 -13 -13 -14 -14 -14 -14 -14 -15 -15 -15 -14 -14 -14 -14 -15 -15 -16 -16 -16 -16 -16 -16 -16 -16 -16 -16 -16 -16 -16 -16 -16 -16 -16 -16 -16 -16 -16 -16 -16 -16 -16 -15 -15 -15 -15 -15 -15 -15 -14 -14 -13 -13 -13 -13 -13 -13 -13 -12 -12 -12 -12 -12 -11 -11 -11 -10 -10 -10 -10
-13 -14 -14 -14 -14 -14 -14 -14 -14 -14 -14 -14 -14 -15 -15 -15 -15 -15 -15 -15 -16 -16 -16 -16 -16 -16 -16 -16 -16 -16 -16 -16 -16 -16 -16 -16 -16 -16 -16 -16 -16 -16 -16 -16 -16 -16 -16 -15 -15 -15 -15 -15 -15 -14 -14 -13 -13 -13 -13 -13 -13 -13 -12 -12 -12 -12 -12 -12 -11 -11 -10 -10 -10 -10
-13 -13 -13 -14 -14 -14 -14 -14 -14 -14 -14 -14 -14 -14 -14 -14 -15 -15 -15 -16 -16 -16 -16 -16 -16 -16 -16 -16 -16 -16 -16 -16 -16 -16 -16 -16 -16 -16 -16 -16 -16 -16 -16 -16 -16 -16 -16 -15 -15 -15 -16 -15 -15 -14 -13 -13 -13 -13 -13 -12 -12 -12 -12 -12 -12 -12 -12 -11 -11 -11 -11 -10 -10 -10
-13 -13 -14 -14 -14 -14 -14 -14 -14 -14 -15 -15 -14 -14 -14 -14 -15 -15 -15 -16 -16 -16 -16 -16 -16 -16 -16 -16 -17 -17 -17 -17 -17 -17 -17 -17 -16 -16 -16 -16 -16 -16 -16 -16 -16 -16 -15 -15 -15 -15 -15 -15 -15 -14 -14 -13 -13 -13 -13 -12 -12 -12 -12 -12 -12 -12 -12 -11 -11 -11 -11 -10 -10 -9
-14 -14 -14 -14 -14 -15 -15 -15 -15 -15 -15 -15 -15 -15 -15 -15 -15 -15 -16 -16 -16 -16 -16 -16 -16 -16 -17 -17 -17 -17 -17 -17 -17 -17 -17 -17 -17 -17 -16 -16 -16 -16 -16 -16 -16 -16 -16 -15 -15 -15 -15 -15 -15 -14 -14 -13 -13 -13 -13 -13 -12 -12 -12 -12 -12 -12 -12 -11 -11 -11 -11 -10 -10 -9
-14 -14 -15 -15 -15 -15 -15 -15 -15 -15 -15 -15 -15 -15 -15 -15 -15 -15 -16 -16 -16 -16 -16 -17 -17 -17 -17 -17 -17 -17 -17 -17 -17 -17 -17 -17 -17 -17 -17 -16 -16 -16 -16 -16 -16 -16 -16 -15 -15 -15 -15 -15 -15 -15 -14 -13 -13 -13 -13 -13 -13 -13 -12 -12 -12 -12 -11 -11 -11 -11 -10 -10 -10 -9
-15 -15 -15 -15 -15 -15 -15 -16 -16 -16 -16 -16 -16 -16 -16 -16 -16 -16 -16 -16 -16 -17 -17 -17 -17 -17 -17 -17 -17 -17 -17 -17 -17 -17 -17 -17 -17 -17 -17 -17 -16 -16 -16 -16 -16 -16 -16 -15 -15 -15 -15 -15 -15 -15 -14 -14 -13 -13 -13 -13 -13 -12 -12 -12 -12 -12 -11 -11 -11 -11 -11 -10 -10 -10
-15 -15 -15 -15 -15 -15 -15 -16 -16 -16 -16 -16 -16 -16 -16 -16 -16 -16 -16 -17 -17 -17 -17 -17 -17 -17 -17 -17 -17 -17 -17 -17 -17 -17 -17 -17 -17 -17 -17 -17 -17 -16 -16 -16 -16 -16 -16 -16 -15 -15 -15 -15 -15 -15 -14 -14 -13 -13 -13 -13 -13 -12 -12 -12 -12 -12 -12 -11 -11 -11 -11 -11 -11 -11
-15 -15 -15 -15 -15 -15 -15 -16 -16 -16 -16 -16 -16 -17 -17 -17 -16 -17 -17 -17 -17 -17 -17 -17 -17 -17 -17 -17 -17 -17 -17 -17 -17 -17 -17 -17 -17 -17 -17 -17 -17 -16 -16 -16 -16 -16 -16 -16 -15 -15 -15 -15 -15 -15 -14 -14 -13 -13 -13 -13 -13 -12 -12 -12 -12 -12 -12 -12 -11 -11 -11 -11 -11 -11
-15 -15 -15 -15 -16 -16 -16 -16 -16 -16 -16 -17 -17 -17 -17 -17 -17 -17 -17 -17 -17 -17 -17 -17 -17 -17 -17 -17 -17 -17 -17 -17 -17 -17 -17 -17 -17 -17 -17 -17 -16 -16 -16 -16 -16 -16 -16 -16 -15 -15 -15 -15 -16 -15 -15 -14 -14 -13 -13 -13 -13 -12 -12 -12 -12 -12 -12 -12 -12 -11 -11 -11 -11 -11
-15 -15 -15 -15 -15 -16 -16 -16 -16 -17 -17 -17 -17 -17 -17 -17 -17 -17 -17 -17 -17 -17 -17 -17 -17 -17 -17 -17 -17 -17 -17 -17 -17 -17 -17 -17 -17 -17 -17 -17 -16 -16 -16 -16 -16 -16 -16 -16 -16 -15 -15 -15 -16 -16 -15 -14 -14 -13 -13 -13 -13 -12 -12 -12 -12 -12 -12 -12 -12 -12 -11 -11 -11 -11
-15 -15 -15 -15 -16 -16 -16 -16 -17 -17 -17 -17 -17 -17 -17 -17 -17 -18 -17 -17 -17 -17 -17 -17 -17 -18 -18 -17 -17 -18 -17 -17 -17 -17 -17 -17 -17 -17 -17 -17 -17 -16 -16 -16 -16 -16 -16 -16 -16 -15 -15 -15 -15 -15 -15 -15 -14 -13 -13 -13 -13 -12 -12 -12 -12 -12 -12 -12 -12 -12 -11 -11 -11 -11
-15 -15 -15 -16 -16 -16 -16 -16 -17 -17 -17 -17 -17 -17 -17 -17 -18 -18 -18 -18 -18 -18 -18 -18 -18 -18 -18 -18 -18 -18 -18 -18 -18 -17 -17 -17 -17 -17 -17 -17 -17 -16 -16 -16 -16 -16 -16 -16 -16 -15 -15 -15 -15 -15 -15 -15 -15 -14 -13 -13 -13 -12 -12 -12 -12 -12 -12 -12 -12 -12 -11 -11 -11 -11
-15 -15 -16 -16 -16 -16 -16 -17 -17 -17 -17 -17 -17 -17 -18 -18 -18 -18 -18 -18 -18 -18 -18 -18 -18 -18 -18 -18 -18 -18 -18 -18 -18 -18 -18 -17 -17 -17 -17 -17 -17 -17 -16 -16 -16 -16 -16 -16 -16 -15 -15 -15 -15 -15 -15 -15 -15 -14 -14 -13 -13 -12 -12 -12 -12 -12 -12 -12 -12 -12 -12 -12 -11 -11
Height
5874 5873 5872 5872 5871 5870 5868 5868 5867 5867 5866 5865 5864 5863 5862 5861 5860 5859 5858 5856 5855 5854 5853 5852 5851 5850 5849 5849 5849 5849 5848 5847 5846 5845 5844 5842 5841 5840 5838 5837 5835 5834 5833 5833 5832 5832 5832 5832 5832 5833 5833 5833 5832 5832 5833 5834 5835 5835 5836 5837 5838 5839 5841 5842 5843 5845 5847 5849 5852 5855 5857 5859 5861 5864
5871 5870 5869 5868 5867 5866 5865 5864 5864 5863 5862 5861 5860 5859 5859 5858 5857 5856 5855 5853 5851 5850 5850 5849 5848 5847 5846 5845 5845 5844 5844 5843 5842 5841 5840 5838 5837 5836 5834 5833 5831 5829 5828 5827 5826 5826 5826 5826 5826 5827 5827 5827 5827 5826 5826 5827 5828 5829 5829 5830 5831 5833 5834 5835 5837 5839 5841 5843 5845 5848 5851 5853 5856 5858
5867 5865 5865 5864 5863 5862 5861 5860 5860 5859 5858 5857 5856 5856 5855 5854 5853 5853 5852 5851 5849 5847 5846 5845 5844 5843 5842 5841 5841 5840 5839 5838 5837 5836 5834 5833 5832 5831 5829 5828 5826 5824 5822 5821 5820 5819 5819 5819 5820 5820 5820 5820 5820 5820 5819 5819 5820 5821 5822 5823 5824 5825 5827 5829 5830 5832 5834 5837 5839 5842 5844 5847 5850 5852
5862 5861 5860 5859 5858 5858 5857 5856 5856 5855 5854 5854 5853 5853 5852 5851 5850 5849 5848 5848 5846 5843 5841 5841 5840 5839 5838 5837 5836 5835 5834 5833 5832 5831 5829 5828 5826 5825 5824 5822 5820 5819 5817 5815 5814 5814 5813 5813 5813 5813 5813 5813 5814 5813 5813 5813 5813 5813 5814 5815 5816 5817 5819 5821 5823 5825 5827 5830 5833 5835 5838 5841 5843 5846
5858 5857 5856 5855 5854 5854 5853 5852 5851 5851 5850 5850 5849 5849 5849 5848 5846 5845 5844 5843 5842 5840 5838 5836 5835 5834 5833 5832 5831 5830 5829 5828 5826 5825 5824 5822 5821 5819 5817 5815 5814 5813 5811 5810 5808 5807 5806 5806 5806 5805 5805 5806 5807 5807 5806 5806 5805 5806 5807 5808 5809 5810 5812 5814 5816 5818 5819 5822 5825 5828 5831 5834 5837 5839
5853 5852 5851 5851 5850 5850 5849 5848 5847 5846 5845 5845 5845 5845 5845 5844 5843 5841 5840 5839 5838 5836 5834 5832 5830 5829 5828 5828 5826 5825 5824 5822 5820 5819 5818 5816 5814 5813 5811 5809 5807 5806 5804 5803 5802 5801 5799 5798 5798 5798 5797 5797 5798 5799 5799 5799 5798 5798 5799 5800 5801 5803 5804 5806 5808 5810 5812 5815 5817 5820 5823 5827 5830 5833
5848 5847 5847 5846 5846 5845 5845 5844 5843 5842 5840 5840 5840 5840 5840 5840 5838 5837 5835 5834 5832 5831 5829 5828 5825 5824 5823 5821 5820 5819 5818 5816 5815 5813 5811 5809 5807 5806 5804 5802 5801 5799 5798 5796 5795 5794 5792 5791 5790 5790 5789 5789 5789 5790 5791 5791 5791 5791 5791 5793 5794 5795 5796 5798 5800 5803 5805 5807 5810 5812 5815 5819 5822 5826
5843 5842 5842 5841 5841 5840 5840 5839 5838 5837 5836 5835 5835 5835 5834 5834 5834 5832 5831 5829 5827 5825 5824 5822 5820 5819 5818 5816 5813 5812 5811 5810 5808 5807 5805 5802 5800 5799 5797 5795 5794 5792 5791 5789 5788 5787 5785 5784 5783 5781 5781 5780 5780 5780 5781 5782 5783 5783 5784 5784 5786 5787 5788 5790 5792 5794 5797 5799 5801 5804 5807 5810 5814 5818
5838 5837 5837 5836 5836 5835 5835 5834 5833 5831 5831 5831 5830 5829 5829 5829 5829 5827 5825 5823 5821 5819 5818 5816 5814 5813 5813 5811 5808 5806 5805 5803 5802 5800 5798 5796 5794 5792 5791 5789 5786 5785 5784 5783 5781 5780 5778 5776 5775 5774 5772 5772 5771 5771 5772 5773 5774 5775 5776 5776 5777 5778 5779 5781 5783 5786 5788 5791 5793 5796 5799 5802 5806 5810
5833 5832 5831 5830 5830 5830 5830 5829 5827 5826 5826 5826 5825 5824 5824 5825 5824 5821 5818 5817 5815 5812 5811 5810 5808 5807 5806 5805 5803 5801 5799 5797 5794 5793 5791 5789 5787 5786 5784 5782 5779 5778 5777 5775 5774 5772 5771 5769 5767 5766 5765 5763 5763 5763 5764 5765 5766 5767 5767 5768 5768 5769 5770 5772 5774 5777 5780 5783 5786 5788 5791 5794 5797 5801
5828 5827 5826 5825 5824 5824 5824 5823 5822 5821 5821 5821 5820 5820 5819 5819 5818 5815 5812 5811 5809 5807 5806 5805 5803 5802 5800 5799 5798 5795 5793 5791 5787 5785 5783 5782 5780 5779 5776 5774 5772 5771 5769 5768 5766 5764 5763 5762 5760 5759 5758 5756 5755 5756 5756 5756 5758 5758 5759 5759 5760 5760 5762 5763 5764 5767 5771 5774 5777 5780 5783 5786 5789 5793
5823 5823 5822 5821 5819 5819 5819 5817 5817 5817 5816 5815 5815 5814 5813 5812 5811 5809 5807 5806 5804 5802 5801 5800 5798 5797 5796 5794 5792 5789 5787 5784 5781 5778 5776 5774 5773 5771 5769 5767 5766 5764 5762 5761 5759 5756 5755 5754 5753 5751 5750 5750 5749 5748 5749 5749 5750 5750 5750 5751 5751 5752 5753 5754 5755 5758 5762 5765 5769 5772 5775 5778 5781 5785
5818 5817 5817 5816 5815 5815 5813 5811 5811 5811 5811 5810 5809 5807 5806 5805 5803 5803 5802 5801 5799 5797 5796 5795 5793 5791 5790 5789 5786 5782 5779 5777 5774 5772 5769 5768 5766 5764 5762 5761 5759 5757 5755 5753 5751 5750 5748 5746 5745 5744 5744 5743 5742 5742 5742 5742 5742 5742 5742 5742 5742 5743 5744 5745 5747 5749 5752 5756 5760 5764 5767 5770 5773 5776
5814 5812 5812 5811 5810 5810 5808 5807 5806 5806 5805 5804 5802 5801 5799 5799 5797 5797 5796 5794 5793 5792 5790 5789 5788 5786 5784 5782 5779 5776 5773 5770 5767 5765 5763 5761 5760 5757 5756 5755 5753 5749 5747 5745 5744 5743 5741 5739 5738 5738 5737 5737 5736 5735 5735 5735 5735 5735 5735 5734 5734 5734 5735 5737 5738 5740 5743 5746 5751 5755 5759 5762 5765 5768
5810 5808 5806 5805 5805 5805 5804 5803 5802 5801 5800 5799 5798 5796 5795 5793 5791 5790 5789 5787 5786 5786 5784 5783 5782 5779 5777 5774 5771 5769 5766 5763 5760 5758 5756 5754 5753 5751 5749 5749 5747 5743 5739 5738 5738 5737 5735 5732 5731 5731 5731 5731 5730 5729 5729 5729 5728 5728 5727 5726 5726 5726 5727 5728 5730 5731 5734 5737 5741 5745 5749 5754 5757 5760
5806 5804 5802 5801 5800 5800 5800 5798 5797 5797 5796 5795 5793 5791 5789 5787 5785 5783 5782 5781 5780 5779 5778 5776 5774 5772 5770 5767 5764 5762 5759 5757 5754 5751 5749 5748 5746 5744 5743 5742 5741 5738 5733 5731 5731 5731 5730 5726 5725 5725 5725 5725 5724 5723 5723 5723 5722 5721 5720 5719 5718 5718 5718 5719 5721 5723 5725 5728 5732 5736 5740 5744 5748 5752
5803 5801 5799 5797 5796 5796 5796 5794 5793 5792 5791 5789 5788 5786 5784 5782 5780 5778 5776 5775 5773 5771 5770 5769 5767 5765 5762 5760 5757 5755 5752 5750 5748 5745 5743 5742 5740 5738 5736 5735 5734 5732 5727 5724 5724 5725 5724 5720 5719 5720 5719 5718 5718 5718 5718 5717 5715 5714 5713 5712 5711 5710 5709 5710 5711 5714 5716 5719 5723 5726 5730 5735 5739 5743
5800 5798 5796 5794 5793 5792 5791 5790 5789 5787 5786 5784 5782 5780 5778 5777 5775 5772 5771 5769 5767 5765 5764 5762 5760 5758 5755 5753 5751 5748 5745 5743 5741 5739 5737 5736 5733 5732 5730 5729 5728 5725 5722 5718 5717 5719 5718 5714 5713 5713 5712 5712 5713 5712 5711 5710 5708 5707 5705 5703 5701 5700 5699 5700 5702 5705 5708 5711 5714 5717 5721 5726 5730 5734
5797 5795 5793 5792 5790 5789 5787 5786 5785 5783 5781 5779 5777 5775 5773 5771 5769 5767 5765 5763 5762 5760 5758 5756 5753 5751 5749 5747 5745 5742 5739 5737 5735 5733 5732 5730 5727 5725 5724 5723 5721 5719 5716 5712 5710 5712 5712 5709 5707 5707 5706 5706 5706 5705 5704 5703 5701 5699 5697 5694 5691 5688 5687 5689 5692 5695 5698 5702 5705 5708 5712 5717 5721 5725
5793 5792 5791 5789 5787 5785 5784 5782 5779 5777 5775 5773 5772 5770 5768 5766 5764 5762 5760 5758 5756 5754 5751 5749 5746 5745 5743 5741 5738 5736 5733 5731 5729 5727 5726 5723 5721 5720 5719 5718 5715 5713 5710 5706 5703 5704 5706 5704 5701 5700 5700 5699 5699 5698 5697 5696 5694 5691 5687 5683 5679 5676 5676 5679 5682 5684 5688 5692 5696 5699 5703 5708 5712 5717
5790 5789 5787 5786 5784 5782 5779 5777 5774 5772 5770 5768 5766 5764 5762 5761 5759 5756 5754 5752 5750 5748 5746 5743 5741 5739 5737 5735 5732 5729 5726 5724 5722 5720 5719 5717 5715 5714 5713 5712 5710 5707 5705 5701 5697 5698 5700 5698 5695 5694 5694 5692 5691 5691 5691 5688 5685 5681 5676 5671 5667 5664 5666 5668 5670 5673 5677 5682 5686 5691 5695 5699 5703 5707
5787 5785 5783 5781 5779 5776 5774 5771 5769 5767 5765 5763 5761 5759 5757 5755 5753 5751 5748 5746 5744 5742 5740 5738 5736 5733 5731 5729 5726 5724 5720 5717 5715 5714 5713 5711 5709 5708 5706 5705 5704 5702 5700 5696 5692 5693 5694 5692 5688 5687 5686 5685 5685 5685 5683 5680 5676 5670 5664 5659 5656 5655 5656 5657 5659 5663 5667 5672 5677 5682 5686 5690 5694 5698
5783 5781 5780 5776 5774 5771 5769 5766 5764 5762 5760 5758 5756 5754 5752 5750 5748 5745 5743 5741 5738 5736 5734 5732 5730 5728 5726 5723 5720 5717 5715 5712 5710 5709 5707 5705 5704 5702 5701 5698 5697 5696 5694 5690 5687 5688 5689 5686 5683 5680 5678 5678 5678 5679 5676 5671 5665 5659 5652 5648 5647 5647 5648 5648 5651 5654 5657 5662 5668 5673 5678 5682 5686 5690
5779 5778 5776 5772 5769 5766 5764 5761 5759 5757 5755 5752 5750 5748 5746 5744 5742 5740 5737 5735 5733 5731 5728 5726 5724 5722 5719 5716 5714 5711 5709 5707 5705 5704 5702 5701 5698 5697 5695 5693 5691 5690 5688 5685 5682 5682 5682 5680 5677 5675 5672 5669 5668 5669 5668 5663 5656 5649 5643 5640 5640 5641 5641 5642 5644 5647 5650 5655 5660 5666 5670 5675 5678 5682
5775 5774 5771 5767 5764 5761 5759 5756 5754 5752 5750 5747 5745 5743 5741 5739 5736 5734 5731 5729 5727 5724 5722 5720 5718 5715 5713 5710 5708 5706 5704 5701 5700 5699 5697 5695 5693 5691 5689 5687 5686 5685 5683 5680 5677 5677 5676 5674 5672 5670 5667 5663 5659 5656 5656 5654 5649 5642 5637 5635 5635 5636 5636 5637 5639 5641 5644 5649 5654 5659 5664 5668 5671 5675
5770 5769 5766 5762 5758 5755 5753 5751 5749 5747 5745 5743 5740 5738 5735 5733 5730 5728 5725 5723 5720 5718 5716 5714 5712 5709 5707 5705 5702 5700 5699 5697 5695 5694 5692 5690 5688 5686 5684 5682 5680 5679 5678 5675 5673 5671 5670 5669 5666 5664 5661 5659 5655 5650 5646 5644 5641 5636 5633 5631 5630 5630 5631 5632 5634 5636 5639 5643 5647 5651 5656 5660 5664 5669
5764 5762 5759 5756 5752 5750 5747 5745 5743 5741 5739 5737 5734 5732 5729 5726 5724 5721 5719 5716 5714 5712 5710 5708 5706 5703 5701 5699 5697 5695 5694 5692 5690 5689 5687 5685 5683 5681 5679 5677 5675 5673 5672 5671 5668 5666 5664 5662 5661 5658 5654 5651 5648 5644 5640 5636 5634 5631 5629 5627 5625 5625 5627 5628 5629 5631 5634 5637 5641 5645 5649 5654 5658 5663
5757 5755 5753 5749 5746 5744 5742 5740 5738 5735 5733 5730 5728 5725 5722 5720 5717 5715 5713 5711 5709 5707 5704 5702 5700 5697 5695 5693 5692 5690 5689 5687 5685 5684 5682 5680 5678 5677 5675 5672 5670 5668 5667 5665 5664 5662 5659 5656 5654 5653 5650 5645 5640 5637 5633 5630 5628 5626 5624 5623 5621 5621 5622 5623 5625 5626 5628 5631 5635 5639 5644 5648 5653 5657
5750 5748 5745 5743 5740 5738 5736 5734 5732 5730 5727 5724 5721 5718 5716 5713 5711 5709 5707 5705 5703 5701 5699 5696 5694 5692 5690 5689 5687 5685 5684 5682 5681 5679 5677 5676 5674 5672 5670 5668 5666 5663 5662 5661 5659 5657 5654 5651 5650 5648 5646 5641 5636 5630 5626 5624 5623 5621 5619 5618 5618 5618 5618 5619 5620 5621 5623 5626 5630 5634 5638 5642 5647 5652
5743 5740 5738 5736 5733 5732 5730 5728 5726 5724 5721 5718 5715 5712 5709 5707 5705 5704 5702 5700 5698 5695 5693 5691 5689 5687 5686 5684 5682 5681 5679 5677 5676 5675 5673 5671 5669 5667 5665 5664 5661 5659 5657 5656 5655 5653 5650 5647 5645 5643 5640 5636 5631 5626 5621 5619 5618 5617 5615 5614 5614 5614 5614 5615 5616 5618 5620 5623 5626 5630 5634 5638 5643 5648
5736 5734 5732 5729 5728 5726 5724 5722 5720 5717 5715 5712 5709 5706 5703 5702 5700 5698 5697 5695 5693 5691 5688 5686 5685 5683 5681 5679 5677 5676 5674 5673 5671 5670 5668 5667 5665 5663 5661 5660 5658 5655 5653 5651 5649 5648 5645 5643 5641 5637 5633 5629 5626 5622 5618 5615 5614 5613 5612 5611 5610 5611 5611 5612 5613 5615 5617 5620 5623 5627 5631 5635 5640 5644
5731 5728 5726 5724 5722 5720 5718 5716 5713 5711 5709 5706 5704 5701 5699 5697 5695 5694 5692 5690 5688 5686 5684 5682 5680 5678 5676 5675 5673 5671 5670 5668 5667 5665 5664 5662 5661 5659 5657 5656 5654 5652 5650 5648 5646 5644 5641 5639 5636 5633 5628 5623 5620 5617 5615 5613 5611 5610 5609 5608 5608 5608 5609 5610 5611 5613 5615 5617 5620 5623 5627 5631 5636 5640
5727 5724 5721 5718 5716 5714 5712 5710 5708 5706 5703 5701 5699 5697 5695 5693 5691 5689 5687 5685 5684 5682 5680 5678 5676 5674 5672 5670 5669 5667 5666 5664 5663 5662 5660 5659 5657 5655 5654 5652 5650 5648 5646 5644 5642 5640 5638 5635 5633 5629 5624 5620 5616 5613 5611 5610 5608 5607 5607 5607 5606 5606 5607 5608 5609 5611 5613 5616 5618 5620 5623 5627 5632 5636
5722 5719 5716 5712 5710 5708 5706 5704 5702 5700 5698 5695 5693 5691 5690 5688 5686 5684 5683 5681 5679 5677 5676 5674 5672 5670 5668 5667 5665 5664 5662 5661 5659 5658 5657 5655 5653 5652 5650 5649 5647 5645 5642 5641 5639 5637 5635 5633 5630 5627 5623 5619 5615 5610 5607 5606 5606 5605 5605 5605 5605 5605 5605 5607 5608 5610 5612 5614 5616 5617 5619 5624 5629 5633
5715 5712 5710 5707 5705 5703 5701 5699 5697 5694 5692 5690 5688 5686 5685 5683 5681 5679 5678 5676 5674 5673 5671 5670 5668 5666 5665 5663 5662 5661 5659 5658 5656 5655 5653 5651 5650 5648 5646 5645 5644 5642 5639 5637 5635 5633 5632 5630 5628 5626 5622 5618 5614 5610 5605 5603 5603 5603 5603 5603 5603 5603 5604 5605 5607 5608 5610 5611 5613 5614 5617 5620 5625 5630
5709 5707 5705 5702 5700 5699 5697 5694 5692 5690 5687 5686 5684 5682 5680 5678 5677 5675 5673 5672 5670 5669 5668 5666 5664 5663 5662 5660 5659 5657 5656 5655 5653 5651 5650 5648 5646 5645 5643 5641 5640 5638 5636 5634 5632 5630 5629 5626 5624 5622 5619 5615 5611 5608 5604 5601 5600 5600 5600 5601 5601 5602 5602 5603 5604 5605 5607 5609 5610 5613 5615 5617 5621 5627
5704 5702 5700 5697 5696 5694 5692 5690 5688 5686 5684 5682 5680 5678 5676 5674 5672 5671 5669 5668 5667 5665 5664 5663 5661 5660 5659 5657 5656 5654 5653 5652 5650 5648 5647 5645 5643 5641 5640 5638 5637 5635 5633 5631 5629 5627 5625 5623 5621 5618 5615 5611 5608 5605 5602 5599 5598 5598 5598 5598 5599 5600 5600 5601 5602 5603 5604 5606 5608 5610 5612 5615 5619 5624
5700 5698 5696 5693 5692 5690 5688 5686 5683 5681 5679 5678 5676 5674 5672 5670 5668 5667 5665 5664 5663 5662 5661 5659 5658 5657 5655 5654 5653 5651 5650 5648 5647 5645 5644 5642 5641 5639 5637 5636 5634 5632 5630 5628 5626 5624 5622 5620 5618 5615 5612 5608 5604 5602 5599 5598 5596 5595 5595 5596 5597 5598 5598 5599 5600 5600 5601 5603 5605 5608 5610 5611 5614 5617
5696 5694 5691 5688 5687 5685 5683 5681 5679 5677 5675 5673 5671 5669 5667 5666 5664 5663 5662 5661 5660 5658 5657 5656 5655 5653 5652 5651 5650 5648 5647 5645 5644 5642 5641 5639 5638 5636 5635 5633 5631 5629 5627 5625 5623 5621 5619 5617 5615 5613 5610 5606 5602 5599 5596 5595 5594 5593 5593 5593 5594 5595 5596 5597 5598 5598 5599 5601 5602 5604 5606 5608 5610 5612
5692 5689 5687 5684 5682 5680 5678 5676 5674 5672 5670 5668 5666 5665 5663 5662 5660 5659 5658 5657 5656 5655 5654 5652 5651 5650 5649 5648 5647 5645 5644 5643 5641 5639 5638 5637 5635 5633 5632 5630 5629 5627 5625 5623 5621 5619 5617 5615 5612 5610 5608 5605 5601 5597 5594 5593 5592 5591 5591 5591 5591 5592 5593 5594 5595 5596 5597 5598 5600 5601 5603 5605 5608 5610
5687 5685 5683 5681 5678 5676 5674 5672 5670 5668 5666 5664 5662 5661 5659 5658 5657 5655 5655 5654 5653 5651 5650 5649 5648 5647 5646 5645 5644 5642 5641 5640 5638 5637 5635 5634 5632 5630 5629 5628 5626 5624 5622 5621 5619 5617 5615 5613 5610 5608 5606 5603 5600 5596 5594 5592 5590 5590 5589 5589 5589 5590 5591 5592 5593 5594 5595 5596 5597 5598 5600 5603 5605 5608
5683 5681 5679 5677 5675 5672 5670 5668 5666 5664 5662 5660 5658 5657 5656 5655 5653 5652 5651 5650 5649 5648 5647 5646 5644 5643 5642 5641 5641 5639 5638 5637 5635 5634 5632 5631 5629 5628 5626 5625 5623 5621 5620 5618 5617 5615 5613 5611 5609 5607 5604 5602 5599 5596 5593 5590 5588 5587 5587 5587 5587 5587 5588 5589 5590 5592 5592 5593 5594 5595 5597 5600 5602 5605
5678 5677 5675 5673 5671 5668 5666 5664 5662 5660 5658 5656 5655 5653 5652 5651 5650 5649 5648 5647 5646 5645 5643 5642 5641 5640 5639 5639 5638 5636 5635 5634 5632 5631 5629 5628 5626 5625 5623 5622 5620 5619 5617 5616 5614 5612 5611 5609 5607 5605 5603 5601 5598 5595 5592 5589 5586 5585 5585 5585 5585 5585 5586 5586 5588 5589 5590 5591 5592 5593 5595 5597 5599 5602
5675 5674 5672 5669 5667 5664 5662 5660 5658 5656 5655 5653 5652 5650 5649 5648 5647 5646 5645 5644 5642 5641 5640 5639 5638 5637 5636 5636 5635 5633 5632 5631 5629 5628 5626 5625 5624 5622 5621 5619 5618 5616 5615 5613 5611 5610 5608 5607 5606 5604 5602 5600 5597 5594 5592 5589 5586 5584 5583 5583 5583 5583 5584 5584 5585 5587 5588 5589 5590 5591 5592 5594 5597 5599
5672 5670 5668 5666 5664 5661 5659 5657 5655 5653 5652 5650 5649 5647 5646 5645 5644 5643 5642 5640 5639 5638 5637 5636 5635 5634 5633 5632 5631 5630 5629 5628 5626 5625 5623 5622 5621 5619 5618 5616 5615 5614 5613 5611 5609 5608 5606 5605 5603 5602 5600 5599 5596 5593 5591 5588 5585 5583 5581 5581 5581 5581 5582 5582 5583 5585 5586 5587 5589 5590 5591 5593 5595 5598
Wind_Speed
31 31 33 33 33 33 33 33 32 32 32 33 33 33 30 29 28 27 27 28 28 27 26 26 26 27 29 31 32 33 33 34 34 35 36 38 40 41 43 45 46 46 44 42 41 39 38 38 39 41 44 46 48 49 49 48 48 49 49 49 48 48 47 48 48 49 49 49 49 48 47 45 44 43
32 32 32 33 34 34 34 34 33 34 34 34 35 35 33 31 29 28 28 28 29 28 27 27 28 29 31 33 34 35 35 35 36 36 37 38 39 40 42 45 48 49 49 48 47 45 43 41 39 39 42 45 48 50 50 50 49 49 50 50 50 49 49 49 49 49 50 51 51 50 49 48 46 45
35 34 33 33 34 35 35 35 35 35 36 36 36 36 34 33 31 30 29 29 30 29 28 28 30 32 34 35 36 37 37 37 37 38 39 40 40 41 43 45 48 50 52 52 51 49 47 45 42 39 40 43 47 50 51 51 50 49 50 50 51 51 51 51 51 50 50 51 51 52 52 51 49 48
37 37 35 34 34 35 35 36 36 37 37 38 37 36 35 34 34 33 32 30 30 29 28 29 31 33 36 37 38 39 39 40 40 40 41 42 42 43 45 47 49 52 53 54 53 52 50 48 46 43 41 41 44 48 51 52 52 51 51 51 52 52 51 52 52 52 51 51 51 52 53 53 51 50
39 39 38 37 36 35 36 36 37 38 39 39 38 36 35 35 35 34 33 31 29 28 29 31 33 35 37 38 39 40 40 41 42 42 43 44 44 46 48 50 51 53 54 54 53 52 52 50 49 47 46 44 43 45 49 51 52 52 52 52 52 53 52 52 52 53 53 52 52 52 53 54 53 52
39 40 41 41 40 39 39 39 39 40 41 41 39 38 36 36 36 35 33 31 28 27 29 31 34 36 37 37 39 40 41 42 43 44 45 46 46 48 50 52 53 54 54 54 52 52 52 52 51 50 50 49 46 44 47 51 52 52 52 52 53 54 54 53 53 53 54 53 53 53 53 54 55 54
38 39 40 42 42 42 41 41 40 40 42 42 40 39 38 37 36 35 33 31 29 28 29 31 33 35 36 37 38 39 41 43 44 45 46 48 49 50 52 53 54 55 54 53 52 52 52 52 52 52 52 52 50 47 46 49 52 53 53 53 54 55 55 55 54 54 54 54 54 54 54 54 55 56
37 38 39 40 41 42 41 41 41 41 41 41 40 39 38 38 36 35 34 33 32 31 32 33 34 34 35 37 38 40 42 44 45 46 48 49 51 53 54 55 55 55 54 53 52 51 52 53 53 52 52 51 50 48 47 47 50 52 53 53 54 55 57 57 56 55 55 54 53 54 54 55 56 57
35 38 40 41 41 41 41 41 41 41 41 40 40 39 38 36 35 34 33 34 36 36 36 36 37 36 36 37 40 42 45 46 47 48 50 51 53 55 55 56 56 55 53 52 51 51 52 53 51 50 49 49 49 48 47 47 48 50 52 53 54 55 57 59 58 57 56 56 54 53 53 54 56 57
33 37 41 43 43 41 41 41 41 41 41 40 40 39 38 38 36 34 33 34 36 36 37 38 40 40 40 41 42 46 49 50 50 51 52 53 55 57 57 57 56 55 53 52 51 51 51 50 49 48 47 47 48 47 47 46 46 47 50 52 54 55 56 59 61 60 59 58 57 55 53 53 55 57
33 36 42 47 46 42 40 40 40 39 40 41 41 40 40 41 41 39 38 39 39 38 38 40 42 43 44 45 47 51 53 54 54 54 54 55 57 58 58 57 56 54 52 51 50 50 49 48 47 47 46 46 46 45 45 45 45 46 48 50 52 54 55 58 61 63 62 61 60 58 56 54 55 57
34 35 39 44 46 45 42 41 41 40 41 42 42 43 43 44 44 44 43 43 42 41 41 43 45 47 49 50 53 55 56 55 55 55 56 57 58 58 58 57 54 52 52 50 48 47 46 46 46 46 44 44 44 43 43 43 43 45 47 49 51 53 54 56 60 63 65 64 63 61 59 57 56 56
34 34 35 37 40 44 42 40 39 40 41 43 45 47 48 48 48 48 48 48 46 45 46 47 49 52 53 54 56 57 57 56 56 56 58 59 59 58 56 55 52 51 51 49 46 45 45 46 46 44 42 41 41 41 41 42 42 43 45 48 50 52 54 55 58 61 64 66 66 64 62 60 58 57
33 32 32 33 35 38 41 43 46 46 45 45 47 49 49 48 48 48 49 52 52 51 52 52 52 53 55 56 57 57 57 58 58 58 59 59 58 56 55 52 50 49 49 47 45 44 45 45 44 42 40 39 40 40 40 41 42 42 43 46 48 50 52 54 56 59 63 66 68 67 65 63 61 59
33 31 30 31 33 35 40 46 51 51 48 46 45 46 46 47 48 47 45 47 50 50 51 50 50 53 55 56 57 57 57 59 59 59 59 58 57 55 53 51 48 46 47 46 44 43 43 44 43 41 39 39 39 39 39 40 41 41 43 45 47 49 51 53 54 57 60 64 66 69 69 67 65 62
34 32 30 30 31 33 35 40 43 45 46 45 43 43 43 44 46 45 42 42 43 44 46 48 50 53 54 55 57 57 58 59 58 58 57 57 55 53 51 49 46 44 45 45 44 42 41 42 42 40 39 39 39 40 39 39 41 42 43 46 49 51 53 53 53 55 58 61 64 67 69 69 67 66
35 33 30 28 28 30 32 35 36 37 39 41 41 41 41 41 42 42 40 41 42 43 47 50 52 54 55 56 57 58 59 59 57 57 57 56 54 51 48 46 44 43 43 45 44 41 39 41 42 40 40 40 40 40 40 41 43 45 47 50 53 55 57 56 54 53 55 58 61 64 66 68 68 67
35 34 31 29 29 29 30 31 32 34 37 39 39 40 40 39 39 39 39 41 43 46 49 52 54 55 56 57 58 59 60 59 58 57 56 53 51 49 46 44 42 41 42 44 44 40 38 41 42 41 41 41 40 41 42 43 45 47 50 53 57 60 61 60 56 53 52 55 58 61 63 65 66 67
35 33 31 29 28 28 30 31 33 35 38 40 40 41 41 40 40 40 41 44 46 48 51 53 55 56 57 58 58 58 59 59 58 56 53 50 48 46 44 42 40 40 41 43 44 40 37 40 42 42 42 41 41 42 43 44 46 49 52 56 61 65 66 62 57 53 52 53 56 59 61 62 64 66
32 29 28 28 29 31 34 36 37 38 40 41 41 41 41 41 42 43 45 47 49 51 53 55 56 57 57 58 58 58 59 58 57 55 51 47 45 43 41 40 39 40 41 42 43 40 37 39 42 42 42 42 42 43 43 45 47 51 55 60 65 69 67 62 57 54 52 51 53 56 58 60 62 64
28 28 30 33 36 37 39 39 40 40 40 40 40 40 40 42 44 46 48 50 52 53 54 56 57 58 57 57 57 58 58 57 56 53 49 46 44 42 40 38 38 39 39 40 42 41 37 39 42 42 41 42 43 43 43 45 49 53 58 63 67 68 63 57 54 53 51 50 51 53 55 58 60 63
29 33 38 41 43 43 43 42 41 41 41 40 40 41 42 43 45 47 49 51 53 54 55 56 57 57 57 57 56 56 55 53 52 49 47 45 43 41 39 38 38 38 38 40 42 40 37 39 42 42 41 42 42 42 43 46 50 54 58 63 63 59 54 50 47 47 48 49 49 51 53 55 58 62
35 40 43 45 45 44 43 43 42 42 41 42 43 44 44 45 46 47 49 51 53 54 55 55 55 55 56 56 55 53 51 49 47 45 44 44 42 40 38 38 38 38 38 39 40 38 36 38 40 42 43 43 43 42 43 46 48 51 55 57 51 43 41 42 40 41 46 48 49 50 51 53 57 62
40 43 44 44 42 41 42 43 43 43 43 44 45 45 45 46 46 48 49 50 52 53 54 54 54 55 55 55 53 51 48 46 44 43 42 41 39 38 37 38 38 37 37 39 39 38 37 38 39 41 43 46 46 43 42 42 43 45 49 48 42 35 35 36 35 37 43 46 48 50 51 53 57 61
40 41 41 41 40 40 42 44 44 45 46 46 46 46 46 47 48 49 50 50 51 52 53 53 54 54 53 52 50 47 46 44 43 42 41 39 37 36 37 38 38 36 36 37 38 38 37 38 40 41 42 45 48 47 44 39 37 40 42 41 37 34 33 33 32 35 40 44 48 50 51 53 56 60
37 37 38 38 39 40 42 43 44 45 45 45 45 46 47 48 49 49 50 50 50 51 52 52 53 52 51 49 46 44 42 42 41 40 39 37 35 36 37 38 37 36 35 36 37 38 38 38 40 42 43 45 46 47 45 39 33 34 37 37 35 33 32 31 31 33 38 43 47 50 52 54 56 59
37 37 37 38 40 41 41 42 42 42 43 44 45 45 46 47 48 48 48 48 49 50 51 51 50 49 48 46 43 41 40 39 38 37 36 35 35 36 37 37 37 36 36 35 36 37 39 39 40 42 45 47 47 45 41 35 30 30 31 32 34 33 31 30 29 31 35 41 46 50 53 55 56 58
39 37 37 38 39 40 40 40 41 43 43 43 44 45 46 46 46 46 46 47 48 49 49 49 48 46 45 42 40 38 37 36 35 34 33 34 35 36 36 36 36 36 36 36 36 37 39 41 41 42 45 48 49 45 37 29 26 26 27 29 32 32 31 29 28 30 33 39 45 49 52 54 56 57
40 38 37 38 38 39 40 41 42 43 43 43 45 46 46 46 45 45 46 47 48 49 49 48 46 44 42 40 37 35 34 33 33 32 32 33 34 35 35 34 34 35 35 35 36 38 40 41 42 43 44 46 47 44 35 27 24 24 25 27 29 31 30 28 28 30 32 36 42 47 51 54 55 57
40 38 37 38 39 40 42 43 43 43 43 45 46 47 45 45 44 44 45 46 47 48 47 45 43 41 39 36 34 33 31 31 30 30 31 32 33 34 33 33 33 34 34 35 36 37 39 41 42 43 44 45 45 41 35 28 25 23 23 24 25 26 27 26 27 29 31 33 39 45 49 52 54 55
39 38 38 40 41 42 43 44 44 45 45 45 45 44 43 43 43 44 45 45 45 44 43 42 41 39 36 33 31 30 29 29 29 29 30 31 32 33 33 32 32 32 33 34 35 36 37 39 40 42 45 45 43 38 33 29 25 22 21 22 19 18 19 22 25 27 29 32 35 39 46 50 52 54
39 40 40 42 43 44 45 45 46 46 45 43 41 41 41 41 42 43 44 43 42 41 41 41 40 37 34 31 29 28 28 28 28 29 30 31 31 32 31 31 30 31 31 32 33 34 35 37 38 40 44 45 41 36 31 26 24 22 20 18 15 14 17 21 23 26 29 31 30 32 40 47 49 50
39 41 42 43 44 45 46 46 46 45 42 39 37 38 39 39 40 40 41 41 41 41 41 39 36 32 30 28 27 27 26 27 28 29 30 30 31 30 30 30 29 30 30 30 31 31 33 35 36 38 42 43 40 35 29 23 21 21 19 17 14 14 17 21 23 25 27 28 26 26 33 42 46 46
40 41 43 45 46 46 46 45 43 41 39 37 37 37 37 37 38 39 40 41 41 40 37 34 31 29 27 26 26 26 26 27 28 29 29 30 30 29 29 28 28 29 29 29 30 30 31 32 33 35 38 38 36 33 29 23 19 19 19 17 15 14 15 18 22 24 25 28 29 24 24 34 44 45
42 43 45 46 46 45 43 42 40 38 37 36 36 36 36 36 37 38 39 39 38 36 33 31 29 27 26 25 25 25 26 27 27 28 28 29 29 29 28 27 27 27 28 29 29 30 30 31 32 33 35 34 31 29 26 22 20 19 18 17 17 16 16 17 21 23 24 28 32 27 21 26 38 43
44 45 45 45 43 40 39 38 37 36 35 34 34 35 36 36 37 38 38 37 34 32 30 29 27 26 25 24 24 25 25 26 27 27 27 27 28 28 28 27 27 27 28 28 29 29 30 31 32 32 33 32 29 26 23 21 21 19 18 18 18 17 17 18 20 23 24 26 29 29 25 25 32 37
44 44 43 42 40 38 37 37 36 34 34 34 34 35 36 36 37 37 36 34 32 30 28 27 26 25 24 24 24 25 25 26 26 27 26 26 26 27 27 27 27 27 28 28 29 29 30 31 32 32 32 32 29 25 23 21 21 20 18 19 20 19 19 19 19 21 24 26 27 29 29 29 29 32
42 40 39 39 38 37 37 36 35 35 36 36 36 36 36 36 36 36 34 32 30 29 27 26 25 25 24 24 24 24 25 25 26 26 25 25 25 26 26 27 27 27 28 28 29 29 30 31 31 32 32 30 27 24 22 21 22 21 19 19 19 20 20 20 19 20 23 26 27 28 29 31 31 31
37 37 37 39 39 37 37 36 37 38 38 38 37 37 36 36 35 34 32 30 29 28 27 26 25 24 24 24 24 24 25 25 26 25 25 25 25 25 25 26 26 27 27 27 28 29 29 30 31 30 30 29 27 24 22 19 19 21 20 18 18 20 21 22 21 20 21 24 27 30 31 32 33 33
35 35 37 38 38 38 38 39 39 39 39 38 36 36 35 35 34 32 30 28 27 26 26 25 24 24 23 23 24 24 24 25 25 25 25 24 25 25 25 25 25 26 26 26 27 28 28 29 30 29 28 28 27 25 22 19 17 19 20 19 19 20 21 22 22 21 21 23 25 29 32 33 33 34
34 35 36 37 37 38 39 39 38 38 36 35 34 34 33 32 31 30 28 27 26 25 25 24 24 24 23 24 24 24 24 25 25 25 25 25 25 25 25 25 25 26 25 25 25 26 27 28 29 28 27 27 27 25 23 21 20 19 19 20 20 20 21 23 22 21 21 23 24 26 30 32 32 34
34 35 36 36 36 36 36 36 35 34 33 32 32 31 30 29 29 28 27 26 25 24 24 23 23 23 24 24 24 24 24 25 25 26 26 26 26 26 26 25 25 25 25 25 25 25 26 26 27 28 26 26 26 25 22 21 21 20 19 19 20 20 21 23 24 22 21 23 24 24 26 29 30 33
34 34 34 34 33 33 33 32 31 30 30 30 29 29 29 28 27 26 26 25 24 23 23 23 23 23 24 24 24 24 25 25 26 26 27 27 27 27 26 26 25 25 25 25 25 25 25 25 25 26 26 25 25 25 22 20 19 19 18 17 18 19 20 22 24 22 20 21 23 25 25 27 28 31
32 31 30 30 30 30 31 30 30 29 29 29 29 28 28 27 26 26 25 25 24 23 23 23 23 23 24 24 24 24 25 26 26 27 27 27 27 27 27 26 25 25 25 25 25 25 24 24 24 24 24 24 24 24 22 19 17 17 17 16 17 19 20 21 23 22 19 19 22 24 25 24 26 29
28 27 27 26 27 28 29 29 29 29 29 29 28 28 27 27 26 26 25 25 24 23 23 23 23 23 24 24 25 25 26 26 27 27 27 27 27 27 27 26 25 24 24 24 24 24 24 24 24 24 23 23 23 23 22 19 15 14 14 14 15 17 18 19 20 20 19 20 21 22 23 23 26 28
Wind_Direction
275 273 272 273 273 274 275 277 280 283 284 285 285 284 283 282 284 287 289 291 290 289 290 292 291 290 290 291 292 293 293 292 291 291 292 293 294 294 295 296 296 295 294 293 292 290 286 281 276 273 272 270 269 268 267 266 264 263 262 260 257 253 249 247 244 242 240 239 238 237 236 235 234 233
279 275 273 274 273 273 273 275 278 281 283 283 283 284 283 283 284 286 288 290 288 286 288 292 292 291 289 289 290 289 288 288 289 289 289 289 289 289 289 290 291 292 292 292 293 292 292 289 284 278 274 272 270 268 267 266 265 263 262 261 259 256 252 249 246 243 241 239 238 237 236 234 234 233
282 279 275 274 274 273 273 274 276 279 281 282 282 283 284 283 284 286 288 289 288 286 287 291 292 290 288 287 287 287 287 287 288 289 289 289 288 287 286 286 287 288 289 290 291 293 293 293 290 285 278 273 270 268 266 266 265 263 262 261 260 258 254 250 248 246 243 240 238 237 236 235 233 232
281 280 278 275 274 275 276 276 276 277 279 280 281 282 283 283 284 285 287 288 288 287 288 290 290 290 288 286 285 285 285 286 287 288 289 289 288 287 286 285 285 285 286 287 289 290 292 292 292 289 283 276 271 267 266 265 264 263 261 261 260 259 257 252 249 247 245 243 240 238 236 235 234 233
278 276 276 276 276 277 278 279 279 278 278 278 279 279 281 283 285 286 287 287 286 287 290 289 288 286 285 285 284 284 284 285 286 287 288 288 287 286 286 285 285 285 286 287 288 289 290 290 289 289 286 282 275 269 266 264 263 262 261 259 259 259 258 255 251 248 246 244 242 239 237 236 235 233
279 273 273 274 276 278 279 281 281 279 277 276 277 278 279 282 284 284 284 284 282 285 290 288 285 283 282 282 283 283 284 285 286 287 287 287 286 285 285 285 286 286 286 287 288 289 289 289 288 288 286 284 280 273 266 264 263 262 261 259 257 257 258 257 254 250 247 245 243 241 239 236 235 234
283 274 272 272 274 277 279 280 280 280 278 277 277 279 279 280 281 282 283 281 279 280 285 285 283 283 284 285 286 287 287 287 287 287 287 287 286 285 285 286 286 286 286 287 288 288 289 290 289 288 285 283 280 275 268 263 261 261 261 260 257 256 256 256 255 252 249 247 245 243 240 238 235 234
289 280 274 273 273 274 277 278 280 280 278 277 277 276 277 277 278 280 281 279 277 278 282 284 283 285 289 290 291 291 290 288 287 287 286 286 285 285 286 287 287 287 287 287 288 289 290 290 289 287 284 281 278 274 268 263 260 260 261 261 259 256 254 254 254 252 250 247 246 244 241 239 236 234
295 287 280 276 274 274 275 276 277 277 276 275 274 274 274 275 274 277 278 276 275 276 280 285 286 289 292 293 294 295 294 291 288 286 285 284 283 285 287 288 288 287 287 288 289 290 291 290 288 285 282 279 276 272 268 264 260 259 260 260 260 257 254 252 252 251 249 247 245 244 242 239 237 234
298 293 286 280 276 273 274 275 274 273 273 273 273 273 272 270 269 271 275 277 278 279 283 289 292 294 295 296 296 296 296 293 290 288 286 284 284 286 288 288 288 288 289 290 292 292 292 289 286 283 281 279 276 273 269 265 261 259 258 259 258 257 254 251 250 249 248 246 245 244 243 240 237 235
299 294 289 285 280 275 275 276 274 273 272 272 272 272 271 268 265 265 269 274 280 283 286 291 293 294 296 297 296 295 294 292 290 287 285 285 287 289 289 290 290 290 291 292 293 293 291 288 285 283 281 278 275 273 271 268 264 261 258 257 257 256 255 252 249 247 246 245 244 243 243 241 238 235
300 292 288 287 285 281 277 274 274 275 274 272 270 270 269 268 266 266 267 271 276 280 283 288 291 292 293 294 292 291 290 290 289 287 285 286 289 291 291 291 291 292 293 294 294 292 290 287 285 283 280 277 275 273 271 269 267 264 261 259 257 256 254 252 250 247 244 243 243 243 242 241 239 236
300 293 287 284 284 282 277 275 277 279 278 275 271 269 268 268 269 270 269 269 272 276 280 284 288 289 289 289 288 287 288 289 289 288 288 289 291 292 292 293 293 294 294 295 294 293 290 288 285 282 280 278 276 274 272 270 267 265 263 261 259 257 254 252 250 248 245 242 242 241 241 240 240 237
300 296 289 282 279 276 274 275 279 281 280 276 273 272 273 273 275 278 275 271 271 274 277 281 285 286 285 285 285 286 286 287 287 288 290 291 293 293 294 294 295 295 294 294 295 293 290 288 285 282 280 278 276 273 271 269 268 267 265 263 261 259 256 253 250 248 246 243 241 240 240 240 239 238
299 295 289 282 279 275 273 273 275 278 282 283 282 283 283 281 281 283 281 276 274 275 277 280 282 283 283 284 285 285 286 287 289 290 292 293 294 295 295 295 295 295 294 294 295 293 290 287 284 282 281 278 275 272 270 268 267 267 266 266 265 263 260 256 251 247 245 243 241 240 240 240 240 238
300 295 289 284 280 278 278 277 277 279 284 288 289 289 289 286 284 284 284 282 280 278 278 279 281 282 283 284 285 286 288 290 292 293 294 295 296 296 296 295 295 294 293 294 294 292 289 285 283 282 280 277 274 272 270 268 267 266 266 267 267 266 264 260 255 249 245 243 241 240 239 239 239 239
301 296 292 289 286 284 283 283 285 287 289 291 292 292 291 290 288 287 285 283 281 280 280 281 283 284 284 285 286 288 289 291 293 295 296 297 297 296 295 295 295 295 293 293 292 290 286 283 282 281 278 274 273 272 271 269 268 267 267 267 267 266 264 261 257 252 246 242 240 239 239 238 238 238
299 295 292 292 292 292 290 290 291 293 293 293 293 292 291 289 287 285 282 280 280 280 282 283 284 285 285 285 287 289 291 293 294 295 297 297 296 295 295 295 295 294 292 291 290 288 285 283 283 281 278 276 275 274 273 271 270 270 270 270 269 267 264 261 257 253 247 242 239 238 237 237 237 237
294 292 292 293 293 293 294 295 294 292 291 292 292 291 291 289 286 282 278 278 279 281 282 282 283 284 285 286 288 289 291 292 294 295 296 296 295 294 295 295 295 293 292 291 289 287 284 284 283 282 280 279 278 276 275 274 274 274 274 273 272 269 266 262 258 252 246 241 238 237 236 235 235 235
291 291 293 294 294 295 297 296 293 290 289 290 291 291 291 290 287 283 279 278 279 280 281 281 282 284 286 288 290 291 291 292 293 295 296 295 294 295 295 295 294 294 293 291 289 287 286 285 284 284 283 282 279 278 278 277 277 276 275 273 271 269 268 265 260 252 244 238 235 234 234 234 233 233
288 291 294 296 297 297 298 296 292 290 289 288 288 288 287 286 284 282 280 278 279 279 280 282 284 287 288 289 291 293 294 294 295 296 297 297 296 296 295 293 293 293 292 290 288 288 288 287 286 285 284 283 281 281 282 281 281 279 276 273 271 271 270 268 262 251 241 234 231 231 231 232 231 231
289 293 295 297 299 299 298 297 294 292 290 288 287 286 285 284 282 281 281 280 281 281 281 283 286 288 290 292 293 294 295 295 296 297 298 298 297 296 295 293 293 293 292 289 288 288 288 287 287 286 285 284 285 287 287 286 284 281 276 273 272 272 270 266 259 248 237 229 226 226 227 229 229 230
292 295 295 296 297 296 297 296 294 291 289 287 287 287 286 286 285 284 284 283 284 284 285 286 287 289 292 294 295 295 295 295 296 297 298 297 296 295 294 293 293 294 292 289 289 289 288 287 287 287 288 288 288 290 291 290 286 281 275 272 272 271 265 259 253 243 233 225 221 220 222 225 227 228
292 293 293 293 292 292 293 292 290 288 287 287 289 289 289 289 288 287 286 286 286 287 288 289 291 292 294 295 296 296 297 296 297 297 296 295 294 294 293 292 294 294 291 290 291 290 288 288 288 289 292 294 295 296 297 295 289 281 274 271 272 269 261 254 249 240 230 222 218 217 218 221 225 227
293 292 291 288 287 288 288 286 286 286 287 289 290 290 290 289 288 288 288 288 289 290 291 292 294 295 296 296 297 297 297 297 297 297 296 295 294 293 293 293 294 294 290 289 292 290 289 289 289 291 296 300 302 304 304 302 293 281 275 272 271 267 260 253 246 239 229 221 217 216 216 219 223 226
294 294 292 287 285 285 285 284 285 287 288 289 290 290 290 289 289 288 289 289 291 292 294 295 295 296 296 297 297 297 297 296 296 296 296 295 295 294 294 295 296 293 289 289 292 292 290 291 292 295 300 303 305 307 307 305 294 280 276 276 273 266 260 254 246 238 229 221 216 215 215 217 220 224
296 294 292 287 286 287 287 287 288 289 290 291 291 292 292 291 290 289 290 291 292 293 294 295 295 296 296 296 297 297 296 295 295 295 295 295 295 295 296 296 296 293 289 289 292 293 293 294 297 301 304 306 308 308 306 302 292 278 273 274 272 268 264 257 248 239 229 222 216 214 214 216 219 222
296 294 291 288 288 289 290 290 291 293 294 294 295 296 295 294 292 292 292 293 294 294 295 295 296 296 297 297 298 297 296 294 293 294 294 294 294 295 296 296 295 293 290 289 291 293 294 296 300 304 307 308 309 309 306 300 291 280 271 268 270 269 266 259 251 241 231 222 217 214 214 215 218 221
295 293 292 290 290 291 291 292 293 295 296 297 298 299 298 296 295 295 295 295 295 295 295 296 296 297 298 298 298 296 293 292 292 293 293 294 295 295 296 297 296 294 292 290 290 292 294 297 301 305 307 308 309 311 310 304 295 285 276 272 271 268 264 259 250 240 230 222 217 214 213 214 216 219
293 292 293 292 292 291 291 293 295 297 299 300 300 300 298 297 297 296 296 295 295 295 296 296 297 299 299 298 296 293 292 292 293 293 294 295 297 298 298 299 298 297 295 293 292 293 294 297 302 305 307 309 312 313 313 307 298 291 286 281 274 267 262 256 245 236 229 222 217 216 215 215 215 218
290 291 292 290 290 291 293 296 298 300 301 301 301 299 298 297 297 296 296 295 295 296 297 298 299 300 299 297 295 293 294 295 295 296 296 298 299 299 299 300 299 298 297 295 295 295 297 300 305 308 310 312 315 316 314 307 298 293 292 288 279 264 255 249 242 234 225 217 216 216 217 216 216 217
287 289 290 290 292 295 297 300 301 302 302 301 299 298 297 297 296 296 296 295 296 297 298 298 299 299 298 297 296 297 298 298 298 299 299 299 300 300 300 300 299 298 296 295 296 298 301 304 309 311 312 315 316 317 313 304 295 291 290 287 277 254 241 240 237 228 220 216 216 215 214 214 216 218
285 287 290 293 296 299 301 302 302 301 300 299 298 296 296 295 295 295 296 296 297 297 298 298 298 298 298 298 299 300 301 300 300 301 300 300 300 300 301 302 301 298 296 296 297 300 303 307 310 312 313 315 316 315 310 299 291 290 288 282 273 255 241 236 229 222 219 218 214 209 211 213 215 217
288 291 295 297 299 301 302 302 301 301 301 300 299 297 296 296 297 297 298 298 298 298 298 298 298 298 299 300 301 301 302 301 301 301 301 301 301 301 302 303 303 301 300 300 301 303 305 307 310 311 313 314 315 314 310 299 290 289 286 277 270 258 244 233 224 220 221 218 211 210 215 216 215 216
295 297 298 299 300 301 302 302 302 302 302 301 300 299 298 299 300 300 299 299 298 297 297 298 298 298 299 301 302 302 302 302 301 301 302 302 302 302 303 304 304 303 302 302 304 305 306 307 309 310 312 314 314 312 308 297 287 286 281 272 264 255 243 233 225 224 225 219 216 221 225 215 212 213
298 299 299 298 299 301 302 303 304 304 303 302 301 300 300 300 300 300 299 298 297 296 297 297 298 298 300 301 302 302 302 302 301 301 302 302 303 304 305 305 305 305 305 305 305 307 307 309 311 312 315 316 313 309 303 290 280 279 276 267 259 252 244 237 231 229 227 221 219 223 223 214 210 212
299 299 298 297 300 303 304 304 304 304 302 301 300 300 300 300 300 299 298 297 296 296 296 296 297 298 300 301 302 302 302 301 301 301 301 302 304 305 305 306 306 306 307 307 308 309 310 311 313 315 318 319 315 308 301 287 275 272 270 263 257 252 245 240 237 235 232 226 221 220 219 216 213 212
298 298 297 298 301 304 304 304 303 302 301 300 299 299 299 298 298 298 297 296 295 295 295 296 297 298 300 301 302 301 301 300 300 300 301 302 304 305 306 306 306 306 308 309 310 311 312 314 316 318 320 323 320 313 304 289 274 269 266 260 254 250 243 239 238 238 237 232 225 222 220 217 212 211
298 299 298 300 303 304 304 303 302 301 300 299 299 298 297 297 297 297 296 295 295 294 294 294 295 297 298 300 301 301 300 300 299 300 302 303 304 304 305 305 305 306 307 309 311 312 313 314 316 318 322 327 328 322 311 296 276 266 264 259 251 244 239 238 238 239 239 234 228 225 223 219 215 213
299 300 300 302 304 305 305 304 302 301 300 299 299 298 297 297 297 296 296 295 294 293 293 293 294 296 298 300 300 300 300 300 300 301 303 303 303 303 304 305 304 305 306 309 311 311 312 314 316 318 323 329 333 329 319 308 288 269 263 260 251 241 237 237 238 240 238 233 228 226 224 222 222 218
301 302 303 305 306 305 304 302 301 301 300 300 299 298 298 298 298 296 295 294 292 291 292 293 294 296 298 299 300 300 300 300 301 302 303 303 303 303 303 304 304 304 306 309 310 310 311 313 316 319 324 330 335 333 323 310 295 279 268 263 256 246 238 236 238 241 238 232 228 226 224 223 225 222
304 306 307 307 307 305 303 302 302 302 302 301 300 300 300 299 298 297 295 294 292 292 293 294 295 297 297 298 299 300 301 301 301 301 302 303 303 303 303 303 303 304 306 309 310 310 311 313 316 320 324 328 333 333 323 307 295 284 272 266 261 252 243 238 239 242 240 233 226 222 223 225 226 222
307 309 309 309 307 306 306 306 306 305 305 304 304 303 303 301 299 297 296 295 294 294 295 295 296 296 297 298 299 300 300 300 300 300 301 301 302 302 302 302 302 303 305 308 309 310 311 313 316 320 322 325 330 335 330 317 303 291 277 266 260 255 248 242 240 241 239 233 225 222 226 229 225 219
308 309 310 311 311 311 311 311 311 310 309 308 307 306 305 304 302 300 298 297 297 297 297 296 296 296 296 297 298 298 299 299 299 299 299 299 300 300 300 300 301 301 303 306 308 309 311 313 315 318 321 323 328 335 336 325 309 296 284 271 262 256 250 245 243 241 238 234 228 224 225 224 216 212
310 313 315 316 315 314 313 313 313 312 311 310 308 307 306 305 304 302 301 300 299 299 298 297 296 296 296 297 297 297 298 298 297 298 298 298 298 298 298 298 299 299 300 303 305 307 310 313 314 316 320 323 327 334 337 332 318 301 286 274 267 262 252 244 243 241 239 237 233 227 223 214 202 201